Regional Weather Roundup
Issued by NWS

Home | Current Version | Previous Version | Graphics & Text | Print | Product List | Glossary On
Versions: 1 2 3 4 5 6 7 8 9 10 11 12 13 14 15 16 17 18 19 20 21 22 23 24 25 26 27 28 29 30 31 32 33 34 35 36 37 38 39 40 41 42 43 44 45 46 47 48 49 50
000
ASUS43 KOAX 262203
RWRNE

WEATHER ROUNDUP FOR NEBRASKA
NATIONAL WEATHER SERVICE OMAHA NE
500 PM CDT SAT MAY 26 2018

NOTES: SATELLITE DATA IS BEING USED TO AUGMENT CLOUD COVER ABOVE
       12000 FEET.
       "FAIR" INDICATES FEW OR NO CLOUDS BELOW 12,000 FEET WITH NO
       SIGNIFICANT WEATHER AND/OR OBSTRUCTIONS TO VISIBILITY.


NEZ001>004-019>022-054>056-262300-
NEBRASKA PANHANDLE

CITY           SKY/WX    TMP DP  RH WIND       PRES   REMARKS
SCOTTSBLUFF    SUNNY     92  47  21 SE8       29.76F
ALLIANCE       SUNNY     90  50  25 S24       29.78F
CHADRON        SUNNY     92  51  24 S14       29.72F
GORDON         FAIR      92  55  28 S13       29.77F HX  90
KIMBALL        MOSUNNY   87  51  29 S16       29.84F
SIDNEY         MOSUNNY   93  46  19 S21G28    29.80F
$$

NEZ057>060-069>072-079>082-262300-
SOUTHWEST NEBRASKA

CITY           SKY/WX    TMP DP  RH WIND       PRES   REMARKS
NORTH PLATTE   SUNNY     93  59  31 S12       29.78F HX  92
IMPERIAL       MOSUNNY   95  41  15 S21G33    29.79F HX  91
LEXINGTON      SUNNY     92  60  34 S10G17    29.79S HX  91
MCCOOK         MOSUNNY   94  51  23 S18G29    29.77F HX  91
OGALLALA       MOSUNNY   95  40  15 S18G29    29.78F HX  91
$$

NEZ005>010-023>029-035>040-094-262300-
NORTH CENTRAL NEBRASKA

CITY           SKY/WX    TMP DP  RH WIND       PRES   REMARKS
VALENTINE      SUNNY     94  61  33 SE16G24   29.76F HX  94
AINSWORTH      SUNNY     89  65  45 SE10      29.78F HX  91
BROKEN BOW     SUNNY     94  57  28 S12       29.80F HX  92
O`NEILL        SUNNY     93  62  34 S6        29.78F HX  93
ORD            SUNNY     94  60  32 S9        29.76F HX  94
THEDFORD       SUNNY     93  58  30 S15G22    29.80F HX  92
$$

NEZ041-046>049-061>064-073>077-083>087-262300-
SOUTH CENTRAL NEBRASKA

CITY           SKY/WX    TMP DP  RH WIND       PRES   REMARKS
GRAND ISLAND   SUNNY     98  57  25 S7        29.77F HX  97
AURORA         SUNNY     94  53  24 SW8       29.77S HX  92
HASTINGS       SUNNY     95  55  26 S7        29.79F HX  93
HEBRON         SUNNY    101  51  18 S9        29.75F HX  98
HOLDREGE       SUNNY     94  55  26 S15       29.80F HX  92
KEARNEY        MOSUNNY   95  56  26 S9        29.79F HX  93
YORK           MOSUNNY   97  55  24 N3        29.76F HX  95
$$

NEZ011>018-030>034-042>045-262300-
NORTHEAST NEBRASKA

CITY           SKY/WX    TMP DP  RH WIND       PRES   REMARKS
NORFOLK        SUNNY     96  56  26 NE9       29.73F HX  94
ALBION         SUNNY     96  60  30 S6        29.77S HX  95
BLAIR          SUNNY     95  56  26 CALM      29.76S HX  94
COLUMBUS       SUNNY     98  56  24 W3        29.75F HX  96
FREMONT        SUNNY     99  54  22 E6        29.74F HX  97
TEKAMAH        SUNNY     98  52  21 N6        29.73F HX  95
WAYNE          SUNNY     96  63  33 CALM      29.74F HX  97
$$

NEZ050>053-065>068-078-088>093-262300-
SOUTHEAST NEBRASKA

CITY           SKY/WX    TMP DP  RH WIND       PRES   REMARKS
LINCOLN        SUNNY     97  57  26 S6        29.74F HX  96
OMAHA EPPLEY   MOSUNNY   99  56  23 NW6       29.74S HX  97
BEATRICE       MOSUNNY   99  62  29 W12       29.74F HX  99
FALLS CITY     SUNNY    100  54  21 W8        29.71F HX  98
NEBRASKA CITY  SUNNY     98  59  26 NE7       29.74F HX  98
PLATTSMOUTH    SUNNY     97  56  25 E6        29.75S HX  95
$$

NEZ044-045-051>053-067-262300-
OMAHA AREA

CITY           SKY/WX    TMP DP  RH WIND       PRES   REMARKS
OMAHA EPPLEY   MOSUNNY   99  56  23 NW6       29.74S HX  97
BLAIR          SUNNY     95  56  26 CALM      29.76S HX  94
FREMONT        SUNNY     99  54  22 E6        29.74F HX  97
MILLARD        SUNNY     98  63  31 CALM      29.74F HX  99
OFFUTT AFB     SUNNY     98  56  24 NE3       29.73F HX  96
PLATTSMOUTH    SUNNY     97  56  25 E6        29.75S HX  95
$$




USA.gov is the U.S. government's official web portal to all federal, state and local government web resources and services.